Time,TemperatureF,DewpointF,PressureIn,WindDirection,WindDirectionDegrees,WindSpeedMPH,WindSpeedGustMPH,Humidity,HourlyPrecipIn,Conditions,Clouds,dailyrainin,SoftwareType,DateUTC
2013-04-03 08:47:00,32.2,19.9,29.95,South,180,3.2,-999.0,60,-99.99,,,0.00,Acu-Link.com,2013-04-03 12:47:00,
2013-04-03 09:02:00,32.2,19.5,29.96,WSW,247,1.1,-999.0,59,-99.99,,,0.00,Acu-Link.com,2013-04-03 13:02:00,
2013-04-03 09:18:00,33.6,20.0,29.97,SW,225,0.0,-999.0,57,-99.99,,,0.00,Acu-Link.com,2013-04-03 13:18:00,
2013-04-03 09:33:00,34.2,19.7,29.97,West,270,4.2,-999.0,55,-99.99,,,0.00,Acu-Link.com,2013-04-03 13:33:00,
2013-04-03 09:48:00,34.5,19.2,29.96,NNW,337,2.2,-999.0,53,-99.99,,,0.00,Acu-Link.com,2013-04-03 13:48:00,
2013-04-03 10:04:00,35.1,19.3,29.96,West,270,3.2,-999.0,52,-99.99,,,0.00,Acu-Link.com,2013-04-03 14:04:00,
2013-04-03 10:19:00,35.2,18.4,29.97,WSW,247,7.8,-999.0,50,-99.99,,,0.00,Acu-Link.com,2013-04-03 14:19:00,
2013-04-03 10:34:00,36.0,18.7,29.94,WSW,247,7.8,-999.0,49,-99.99,,,0.00,Acu-Link.com,2013-04-03 14:34:00,
2013-04-03 10:49:00,36.7,18.4,29.96,West,270,2.2,-999.0,47,-99.99,,,0.00,Acu-Link.com,2013-04-03 14:49:00,
2013-04-03 11:04:00,38.7,19.7,29.97,SW,225,2.2,-999.0,46,-99.99,,,0.00,Acu-Link.com,2013-04-03 15:04:00,
2013-04-03 11:20:00,38.7,18.7,29.96,SW,225,5.8,-999.0,44,-99.99,,,0.00,Acu-Link.com,2013-04-03 15:20:00,
2013-04-03 11:35:00,39.2,19.1,29.95,WSW,247,0.0,-999.0,44,-99.99,,,0.00,Acu-Link.com,2013-04-03 15:35:00,
2013-04-03 11:50:00,40.1,18.3,29.96,WSW,247,8.3,-999.0,41,-99.99,,,0.00,Acu-Link.com,2013-04-03 15:50:00,
2013-04-03 12:06:00,40.3,18.5,29.95,WSW,247,4.2,-999.0,41,-99.99,,,0.00,Acu-Link.com,2013-04-03 16:06:00,
2013-04-03 12:36:00,41.2,17.5,29.95,WSW,247,2.7,-999.0,38,-99.99,,,0.00,Acu-Link.com,2013-04-03 16:36:00,
2013-04-03 12:52:00,42.4,17.4,29.95,West,270,5.8,-999.0,36,-99.99,,,0.00,Acu-Link.com,2013-04-03 16:52:00,
2013-04-03 13:07:00,42.3,17.9,29.94,West,270,3.2,-999.0,37,-99.99,,,0.00,Acu-Link.com,2013-04-03 17:07:00,
2013-04-03 13:22:00,43.2,17.4,29.93,SW,225,1.1,-999.0,35,-99.99,,,0.00,Acu-Link.com,2013-04-03 17:22:00,
2013-04-03 13:37:00,43.3,17.5,29.92,WSW,247,5.8,-999.0,35,-99.99,,,0.00,Acu-Link.com,2013-04-03 17:37:00,
2013-04-03 13:52:00,42.8,15.7,29.91,West,270,4.7,-999.0,33,-99.99,,,0.00,Acu-Link.com,2013-04-03 17:52:00,
2013-04-03 14:07:00,44.2,18.3,29.93,SSW,202,5.8,-999.0,35,-99.99,,,0.00,Acu-Link.com,2013-04-03 18:07:00,
2013-04-03 14:38:00,44.1,16.9,29.91,WSW,247,3.2,-999.0,33,-99.99,,,0.00,Acu-Link.com,2013-04-03 18:38:00,
2013-04-03 14:53:00,43.9,16.0,29.92,SW,225,0.0,-999.0,32,-99.99,,,0.00,Acu-Link.com,2013-04-03 18:53:00,
2013-04-03 15:08:00,44.1,16.1,29.92,West,270,0.0,-999.0,32,-99.99,,,0.00,Acu-Link.com,2013-04-03 19:08:00,
2013-04-03 15:54:00,45.7,17.6,29.91,WSW,247,3.2,-999.0,32,-99.99,,,0.00,Acu-Link.com,2013-04-03 19:54:00,
2013-04-03 16:09:00,45.3,15.7,29.93,WNW,292,4.7,-999.0,30,-99.99,,,0.00,Acu-Link.com,2013-04-03 20:09:00,
2013-04-03 16:24:00,45.0,15.5,29.92,West,270,4.2,-999.0,30,-99.99,,,0.00,Acu-Link.com,2013-04-03 20:24:00,
2013-04-03 16:40:00,45.5,15.9,29.92,WSW,247,3.7,-999.0,30,-99.99,,,0.00,Acu-Link.com,2013-04-03 20:40:00,
2013-04-03 16:55:00,42.3,13.8,29.94,West,270,5.3,-999.0,31,-99.99,,,0.00,Acu-Link.com,2013-04-03 20:55:00,
2013-04-03 17:10:00,43.5,14.9,29.94,West,270,4.2,-999.0,31,-99.99,,,0.00,Acu-Link.com,2013-04-03 21:10:00,
2013-04-03 17:25:00,43.5,15.6,29.93,WSW,247,6.3,-999.0,32,-99.99,,,0.00,Acu-Link.com,2013-04-03 21:25:00,
2013-04-03 17:41:00,44.1,16.1,29.94,West,270,11.9,-999.0,32,-99.99,,,0.00,Acu-Link.com,2013-04-03 21:41:00,
2013-04-03 17:56:00,43.2,14.6,29.94,West,270,5.3,-999.0,31,-99.99,,,0.00,Acu-Link.com,2013-04-03 21:56:00,
2013-04-03 18:11:00,43.2,14.6,29.96,West,270,0.0,-999.0,31,-99.99,,,0.00,Acu-Link.com,2013-04-03 22:11:00,
2013-04-03 18:41:00,41.5,14.6,29.99,South,180,6.3,-999.0,33,-99.99,,,0.00,Acu-Link.com,2013-04-03 22:41:00,
2013-04-03 18:56:00,40.3,14.9,29.98,SW,225,6.8,-999.0,35,-99.99,,,0.00,Acu-Link.com,2013-04-03 22:56:00,
2013-04-03 19:11:00,39.2,14.5,30.00,West,270,4.2,-999.0,36,-99.99,,,0.00,Acu-Link.com,2013-04-03 23:11:00,
2013-04-03 19:27:00,38.1,14.8,30.00,SW,225,6.3,-999.0,38,-99.99,,,0.00,Acu-Link.com,2013-04-03 23:27:00,
2013-04-03 19:42:00,37.2,14.6,30.01,WNW,292,1.7,-999.0,39,-99.99,,,0.00,Acu-Link.com,2013-04-03 23:42:00,
2013-04-03 19:57:00,36.7,15.2,30.02,West,270,2.7,-999.0,41,-99.99,,,0.00,Acu-Link.com,2013-04-03 23:57:00,
2013-04-03 20:13:00,36.0,15.7,30.03,West,270,0.0,-999.0,43,-99.99,,,0.00,Acu-Link.com,2013-04-04 00:13:00,
2013-04-03 20:28:00,35.8,16.0,30.05,West,270,6.8,-999.0,44,-99.99,,,0.00,Acu-Link.com,2013-04-04 00:28:00,
2013-04-03 20:43:00,35.2,16.0,30.04,WNW,292,4.7,-999.0,45,-99.99,,,0.00,Acu-Link.com,2013-04-04 00:43:00,
2013-04-03 20:58:00,34.7,16.6,30.06,WNW,292,2.7,-999.0,47,-99.99,,,0.00,Acu-Link.com,2013-04-04 00:58:00,
2013-04-03 21:13:00,34.7,16.6,30.06,SW,225,6.8,-999.0,47,-99.99,,,0.00,Acu-Link.com,2013-04-04 01:13:00,
2013-04-03 21:59:00,33.8,16.7,30.08,West,270,3.7,-999.0,49,-99.99,,,0.00,Acu-Link.com,2013-04-04 01:59:00,
2013-04-03 22:29:00,33.3,16.7,30.08,West,270,4.7,-999.0,50,-99.99,,,0.00,Acu-Link.com,2013-04-04 02:29:00,
2013-04-03 22:44:00,33.1,16.5,30.09,WSW,247,0.0,-999.0,50,-99.99,,,0.00,Acu-Link.com,2013-04-04 02:44:00,
2013-04-03 23:00:00,32.9,16.3,30.11,West,270,0.0,-999.0,50,-99.99,,,0.00,Acu-Link.com,2013-04-04 03:00:00,
2013-04-03 23:15:00,32.7,16.6,30.09,West,270,0.0,-999.0,51,-99.99,,,0.00,Acu-Link.com,2013-04-04 03:15:00,
2013-04-03 23:30:00,32.7,16.6,30.11,West,270,0.0,-999.0,51,-99.99,,,0.00,Acu-Link.com,2013-04-04 03:30:00,